Wind_Speed
11 10 10 11 11 12 13 15 14 14 14 13 11 9 6 2 2 4 5 3 3 4 4 4 3 4 5 4 6 6 7 1 3 6 15 17 18 7 4 4 4 3 3 4 8
11 11 10 10 9 8 10 12 13 12 12 13 12 11 9 6 3 2 5 5 3 3 3 2 2 2 3 4 3 3 4 3 4 11 17 20 20 9 5 4 3 2 3 5 8
9 10 11 10 9 8 8 8 9 10 10 12 12 11 9 8 5 5 6 6 4 4 4 2 2 1 2 2 1 4 3 5 6 6 10 22 25 10 8 6 4 2 3 5 6
7 8 9 9 9 8 7 7 7 8 10 10 12 12 11 10 6 6 7 5 4 4 6 4 2 1 0 2 2 7 4 6 5 9 7 15 22 16 10 7 7 5 5 5 5
4 4 5 6 7 7 6 6 6 7 9 9 11 13 13 12 10 8 8 6 4 5 8 5 3 1 3 4 5 3 4 7 6 7 12 20 19 15 14 11 11 8 7 6 5
2 2 2 2 4 4 4 3 4 5 8 9 11 15 15 13 12 9 9 6 4 5 9 7 6 5 6 5 3 4 2 4 3 5 6 21 17 15 11 12 12 10 9 7 6
2 1 1 0 1 1 1 1 2 4 6 8 11 15 15 13 12 10 9 7 5 6 10 9 9 8 6 6 3 3 2 1 1 3 4 6 16 19 16 11 12 12 11 9 6
2 3 3 2 1 1 1 2 3 4 6 8 10 15 15 16 13 10 8 6 6 8 11 11 11 9 11 7 3 3 5 4 4 3 4 4 6 16 17 14 13 13 11 9 6
6 5 5 5 4 4 3 3 4 5 6 8 10 14 16 17 14 10 7 5 7 9 10 12 12 9 5 3 3 4 5 8 5 6 4 3 6 4 16 15 15 14 13 10 7
8 8 8 8 7 6 6 5 4 5 6 8 10 15 16 18 15 10 7 6 8 10 10 11 11 8 6 10 23 14 7 9 2 7 1 7 10 3 7 19 19 14 12 10 9
8 9 9 11 10 9 8 7 6 5 6 9 11 13 16 18 16 9 7 6 8 10 10 12 11 7 6 19 13 3 7 10 14 9 2 7 10 9 8 9 15 9 11 10 9
7 7 8 10 11 11 10 9 9 8 10 10 13 13 14 16 17 9 7 6 8 10 11 12 12 13 15 28 21 8 7 12 16 15 6 12 12 11 8 7 11 15 12 13 11
12 12 11 12 12 11 12 12 13 13 13 11 12 13 12 14 16 11 7 5 7 10 12 14 4 15 17 15 11 3 6 12 10 8 13 6 7 13 11 9 11 15 17 16 18
17 16 16 17 17 16 16 15 15 16 17 14 13 13 12 11 14 12 7 6 6 9 11 14 17 11 12 13 9 9 15 16 9 9 15 11 17 12 11 12 9 14 23 18 20
25 24 23 22 22 21 20 19 18 17 14 21 15 14 12 10 12 10 7 6 5 6 8 8 11 12 12 11 10 12 21 14 9 7 13 8 7 20 20 13 11 10 18 20 20
32 31 30 29 28 27 25 23 21 19 17 22 18 15 12 11 11 10 6 5 5 7 11 13 14 14 10 14 16 13 8 2 3 2 6 16 5 18 6 9 16 8 9 13 23
33 33 33 32 32 32 31 29 27 23 24 26 19 15 13 12 12 9 6 5 5 7 9 8 9 11 13 8 8 8 4 8 6 11 11 4 2 20 23 15 20 13 10 9 14
22 21 22 21 22 27 32 33 34 28 25 23 20 17 13 14 13 10 5 5 6 13 8 7 9 8 9 13 4 7 12 14 5 12 4 13 3 17 22 22 16 15 8 8 6
27 25 25 28 26 26 26 25 23 27 25 25 22 19 16 15 12 12 7 7 9 12 14 10 9 16 11 13 15 10 8 9 8 10 11 10 4 17 14 13 12 8 8 8 8
34 32 29 30 30 30 29 23 23 25 32 29 24 21 18 17 17 14 10 9 14 13 22 12 13 13 13 14 12 16 12 6 5 7 4 7 13 18 10 9 11 9 9 7 6
31 33 30 30 31 31 27 23 26 27 24 30 28 20 19 18 19 15 13 9 11 18 18 14 15 12 16 11 9 5 9 10 9 15 7 5 9 18 25 17 13 14 12 11 9
34 36 31 33 32 32 29 27 29 25 27 30 31 31 27 23 21 19 16 14 12 15 14 18 9 11 10 10 15 17 11 10 2 8 8 13 11 20 19 16 13 14 14 13 14
35 36 34 35 35 34 29 29 29 28 31 31 32 33 31 29 30 24 21 19 24 16 17 16 18 14 8 13 16 15 15 15 12 9 13 6 24 23 21 22 14 13 13 13 16
36 38 39 39 39 37 35 32 31 30 33 33 34 36 36 35 34 27 23 25 22 17 20 22 19 14 19 17 6 7 11 15 15 13 11 10 20 26 24 17 14 15 14 15 15
34 36 36 38 41 41 40 35 33 32 33 35 37 36 38 38 35 34 26 25 25 24 19 21 18 21 16 14 18 14 14 14 15 16 19 13 16 12 29 16 13 16 16 17 16
36 37 42 42 43 41 42 39 38 35 37 37 38 35 36 38 38 30 28 27 27 26 23 19 20 21 26 23 28 29 23 19 15 15 19 26 20 29 28 21 20 18 18 19 20
37 39 40 42 43 44 42 44 42 41 46 37 41 42 45 44 48 51 47 36 26 27 26 24 21 22 23 19 23 25 20 22 20 18 16 17 19 28 17 19 21 20 21 22 21
Wind_Direction
80 74 70 75 94 100 97 94 87 85 79 69 62 55 47 33 280 272 288 297 344 351 4 21 34 51 68 85 87 75 78 143 305 174 213 187 183 171 171 177 157 179 223 194 169
78 72 70 75 89 100 100 96 89 83 73 60 47 39 35 27 4 288 278 284 282 299 309 325 356 40 53 68 44 6 272 179 281 248 234 210 195 221 182 147 127 226 234 193 197
77 72 70 68 74 95 108 100 85 76 63 47 38 27 19 13 3 324 297 286 274 272 266 273 292 343 21 14 31 284 334 1 329 265 253 223 205 208 172 159 143 213 226 208 200
80 74 71 70 70 80 91 91 83 67 46 34 29 22 12 8 1 325 310 301 269 244 248 243 240 258 312 267 350 290 11 355 303 258 183 182 189 191 165 130 174 186 188 201 190
85 74 71 69 67 66 76 84 71 49 33 26 20 15 5 354 342 324 312 303 274 227 241 235 229 195 253 256 356 293 1 4 359 162 155 157 175 188 154 188 175 175 175 187 201
83 86 79 77 66 62 65 64 45 26 14 12 9 7 1 349 337 323 307 294 266 227 231 225 220 194 242 232 216 242 2 41 38 157 176 159 170 179 185 169 177 169 169 183 196
52 27 326 29 65 56 43 31 19 355 353 355 357 1 359 348 340 327 305 287 253 218 224 225 224 197 221 296 261 208 236 31 52 169 139 161 174 190 180 164 178 178 170 178 202
334 334 320 304 283 283 302 303 315 326 334 340 348 355 354 346 337 328 310 275 239 225 219 223 225 213 175 233 320 299 269 274 291 250 208 214 289 190 177 168 181 184 166 177 198
279 286 290 288 287 284 283 286 296 308 321 330 340 352 353 347 337 320 306 264 228 223 220 219 222 209 184 135 264 287 305 250 282 247 269 27 323 155 187 182 200 193 174 174 192
272 275 276 276 279 287 285 281 288 301 315 328 336 343 350 347 340 317 283 248 222 224 220 213 216 193 183 217 217 85 243 233 204 238 250 329 344 334 214 203 191 200 183 172 185
276 277 277 275 276 277 276 278 281 290 311 331 339 339 342 345 345 319 287 243 226 222 219 213 207 175 183 255 287 156 243 254 229 227 287 306 301 308 262 272 213 205 176 222 195
287 285 284 281 280 276 274 274 280 286 304 322 330 333 330 339 344 326 290 254 226 217 214 214 212 173 239 215 234 218 250 272 249 255 255 299 299 295 291 249 230 200 205 200 214
278 280 282 285 285 284 280 277 279 283 291 306 312 325 321 330 343 334 298 271 232 223 213 200 256 221 217 209 207 206 224 261 261 257 269 264 259 259 278 287 244 256 212 205 218
273 273 276 277 278 277 278 280 282 284 289 292 298 312 319 319 337 337 306 287 240 230 218 220 212 226 209 201 181 237 222 258 208 239 284 211 294 156 274 273 274 252 234 194 214
273 272 272 272 273 274 273 273 274 275 280 292 293 300 307 303 321 329 307 281 234 211 201 238 218 204 204 204 198 221 249 233 236 220 296 359 292 303 326 272 256 255 258 258 223
271 271 270 268 268 271 270 270 270 269 265 276 285 289 290 292 300 325 296 269 216 189 195 211 213 201 189 203 209 211 215 6 275 248 242 256 254 277 209 278 278 261 260 270 229
271 272 271 269 267 266 268 268 268 266 266 279 278 276 278 283 285 309 287 251 184 175 184 199 205 192 188 178 205 182 157 274 173 226 232 307 351 241 263 270 273 278 290 303 229
270 268 269 272 271 266 262 261 263 266 263 261 273 265 265 272 279 292 288 249 192 160 229 204 220 230 202 174 269 276 192 243 255 295 120 272 256 249 270 274 265 277 279 288 283
271 266 268 279 275 269 264 262 266 253 244 248 254 255 255 254 261 274 277 235 209 175 163 220 244 251 218 195 166 231 234 214 259 289 238 258 256 295 275 272 252 268 241 254 244
271 269 269 270 270 268 266 267 258 247 247 239 246 243 240 240 249 250 260 227 207 201 165 196 217 240 241 216 206 181 213 233 211 246 220 219 317 253 277 278 239 241 244 225 236
267 268 269 269 266 264 265 257 247 249 244 238 233 221 231 225 240 229 230 239 202 222 209 195 198 226 258 243 210 258 220 206 200 218 230 255 195 237 281 283 249 231 236 230 233
269 269 270 268 267 264 259 255 248 245 241 240 238 231 222 215 224 225 225 227 240 208 225 200 191 240 259 220 203 201 218 218 218 221 227 229 297 285 299 298 263 242 239 240 246
269 267 266 268 267 263 258 254 247 239 236 239 239 236 232 224 221 219 217 216 233 213 219 193 184 222 201 272 280 245 228 213 218 239 273 224 254 276 278 285 283 260 248 247 244
268 268 264 264 262 260 257 252 249 240 240 239 238 234 232 228 226 221 214 230 228 217 210 188 206 204 239 212 204 262 217 226 212 216 233 244 269 289 286 260 265 266 261 251 247
269 267 265 265 262 258 255 252 249 245 242 239 237 238 234 233 224 229 216 224 223 225 216 206 205 222 241 222 216 224 235 239 239 223 209 244 229 231 256 262 258 266 269 268 260
260 266 264 262 258 259 256 251 249 244 242 234 236 231 233 229 230 217 231 212 235 224 222 217 211 220 220 243 253 246 253 249 245 239 232 220 230 241 255 266 265 257 262 267 274
256 256 257 258 257 254 252 248 242 241 243 235 237 224 227 221 221 222 219 200 224 233 221 218 221 226 232 239 259 249 265 259 253 252 241 235 239 249 252 252 261 259 257 260 266
Height
5888 5888 5887 5887 5887 5887 5887 5887 5888 5887 5888 5888 5887 5886 5886 5885 5885 5884 5884 5885 5885 5884 5884 5883 5883 5883 5882 5881 5882 5882 5882 5880 5879 5877 5879 5881 5882 5881 5881 5880 5880 5881 5880 5881 5881
5890 5889 5889 5889 5889 5889 5889 5889 5889 5889 5889 5889 5888 5886 5885 5885 5884 5883 5883 5884 5884 5884 5884 5883 5883 5882 5883 5883 5883 5883 5881 5880 5880 5879 5879 5880 5881 5882 5882 5881 5881 5881 5881 5881 5881
5891 5891 5890 5890 5890 5890 5890 5890 5890 5890 5889 5889 5888 5887 5886 5885 5884 5883 5882 5882 5883 5883 5882 5882 5883 5883 5883 5883 5884 5883 5880 5878 5878 5876 5875 5876 5880 5882 5881 5881 5881 5882 5882 5882 5882
5892 5891 5891 5891 5891 5891 5891 5891 5891 5890 5890 5889 5889 5887 5886 5884 5885 5882 5881 5881 5881 5881 5881 5882 5882 5883 5884 5885 5883 5884 5880 5878 5876 5873 5872 5872 5878 5881 5881 5885 5882 5882 5882 5883 5883
5892 5892 5892 5892 5891 5891 5891 5891 5891 5890 5890 5890 5888 5887 5885 5884 5883 5881 5879 5879 5879 5880 5879 5881 5882 5883 5884 5884 5883 5882 5881 5878 5875 5873 5874 5874 5877 5881 5883 5883 5882 5882 5882 5884 5884
5892 5892 5892 5892 5892 5891 5891 5891 5891 5890 5890 5889 5888 5886 5884 5883 5881 5879 5878 5877 5877 5878 5878 5879 5881 5882 5882 5882 5882 5883 5881 5880 5877 5876 5875 5875 5877 5880 5881 5882 5882 5882 5883 5884 5884
5892 5892 5891 5892 5891 5891 5891 5891 5891 5890 5889 5888 5887 5885 5883 5882 5879 5878 5876 5876 5876 5876 5876 5877 5879 5881 5881 5882 5882 5882 5882 5880 5880 5878 5877 5877 5876 5878 5880 5882 5883 5883 5883 5883 5884
5892 5891 5891 5891 5891 5891 5890 5890 5890 5889 5888 5887 5886 5884 5882 5879 5877 5875 5874 5874 5874 5874 5875 5875 5876 5879 5881 5883 5884 5884 5882 5881 5880 5880 5879 5878 5877 5876 5879 5880 5883 5883 5883 5884 5883
5890 5890 5889 5889 5889 5889 5889 5889 5888 5888 5887 5886 5885 5883 5881 5878 5875 5873 5872 5872 5872 5872 5873 5874 5875 5877 5881 5883 5885 5883 5882 5882 5882 5881 5879 5878 5877 5877 5879 5881 5882 5883 5883 5884 5884
5888 5888 5887 5887 5887 5887 5887 5887 5886 5886 5885 5884 5883 5882 5879 5876 5873 5871 5870 5870 5870 5870 5872 5873 5873 5877 5881 5882 5883 5873 5883 5882 5882 5882 5882 5882 5880 5880 5881 5882 5882 5883 5883 5884 5884
5886 5885 5885 5884 5885 5885 5885 5885 5886 5885 5883 5882 5881 5878 5876 5874 5871 5869 5868 5868 5868 5869 5870 5871 5873 5879 5888 5881 5878 5882 5883 5881 5881 5881 5883 5882 5881 5881 5882 5881 5883 5883 5883 5884 5884
5883 5883 5882 5882 5882 5882 5881 5881 5881 5882 5881 5879 5878 5877 5875 5873 5870 5868 5866 5866 5866 5867 5868 5871 5872 5878 5879 5878 5878 5881 5884 5883 5881 5881 5885 5882 5882 5880 5880 5882 5882 5881 5883 5884 5885
5881 5880 5880 5879 5879 5879 5878 5878 5878 5877 5877 5877 5876 5875 5873 5871 5868 5866 5865 5863 5864 5865 5867 5869 5875 5872 5873 5875 5878 5881 5887 5882 5877 5879 5881 5881 5881 5879 5879 5880 5881 5881 5882 5884 5884
5876 5876 5876 5876 5876 5875 5875 5874 5874 5874 5873 5875 5873 5872 5870 5869 5867 5864 5863 5862 5862 5863 5865 5867 5869 5869 5870 5873 5878 5885 5879 5880 5879 5879 5879 5880 5880 5871 5877 5879 5879 5879 5879 5879 5883
5870 5871 5871 5870 5870 5870 5871 5870 5870 5870 5870 5869 5870 5869 5868 5867 5866 5863 5861 5860 5860 5862 5865 5867 5866 5867 5869 5873 5875 5881 5875 5878 5877 5882 5880 5878 5886 5878 5876 5877 5878 5878 5877 5878 5880
5863 5863 5864 5864 5864 5864 5864 5864 5865 5867 5865 5864 5865 5865 5864 5864 5863 5861 5860 5859 5859 5860 5862 5865 5864 5866 5870 5872 5871 5873 5874 5877 5878 5882 5886 5883 5884 5881 5871 5875 5875 5877 5876 5875 5877
5854 5854 5854 5855 5856 5856 5857 5858 5860 5860 5859 5859 5860 5861 5861 5861 5860 5859 5858 5857 5858 5860 5862 5863 5864 5865 5867 5871 5871 5872 5879 5878 5879 5879 5881 5880 5883 5880 5878 5873 5874 5875 5874 5873 5873
5847 5847 5846 5847 5847 5847 5848 5850 5851 5854 5854 5853 5855 5856 5857 5857 5857 5857 5856 5856 5856 5861 5870 5868 5867 5866 5866 5872 5875 5873 5877 5877 5879 5877 5882 5882 5884 5878 5875 5873 5873 5873 5874 5873 5873
5839 5840 5840 5839 5839 5839 5840 5841 5845 5847 5848 5847 5849 5851 5853 5854 5855 5854 5854 5854 5855 5858 5868 5871 5873 5865 5866 5868 5871 5876 5874 5879 5879 5884 5883 5883 5878 5876 5872 5872 5871 5871 5871 5872 5873
5830 5831 5832 5831 5830 5830 5831 5836 5836 5837 5837 5840 5843 5847 5850 5851 5851 5851 5852 5853 5854 5855 5859 5868 5869 5866 5865 5864 5866 5868 5871 5877 5878 5880 5881 5876 5878 5872 5870 5870 5871 5870 5869 5870 5871
5822 5821 5824 5822 5821 5821 5824 5826 5826 5828 5830 5833 5836 5842 5845 5851 5848 5850 5852 5851 5851 5854 5855 5860 5865 5865 5863 5862 5868 5868 5868 5871 5875 5876 5877 5880 5873 5871 5869 5869 5868 5868 5868 5868 5869
5813 5812 5814 5813 5814 5813 5815 5817 5817 5821 5823 5824 5828 5831 5836 5842 5848 5846 5849 5850 5848 5851 5851 5854 5863 5863 5863 5864 5865 5866 5871 5869 5874 5875 5877 5875 5870 5865 5867 5865 5866 5866 5866 5868 5868
5802 5802 5804 5803 5804 5804 5806 5808 5810 5812 5814 5817 5820 5823 5827 5832 5836 5840 5846 5848 5844 5846 5847 5851 5856 5858 5861 5862 5859 5859 5862 5865 5870 5874 5872 5873 5867 5866 5866 5864 5863 5862 5863 5864 5865
5792 5792 5792 5793 5794 5795 5795 5798 5801 5803 5805 5808 5812 5814 5818 5822 5827 5832 5838 5839 5839 5841 5842 5845 5853 5857 5857 5855 5858 5856 5859 5860 5864 5869 5872 5873 5866 5864 5861 5861 5860 5860 5859 5860 5861
5781 5780 5780 5781 5782 5784 5785 5788 5790 5793 5797 5798 5801 5805 5809 5814 5819 5823 5829 5835 5833 5835 5838 5841 5846 5849 5853 5849 5852 5854 5855 5857 5857 5859 5864 5864 5866 5865 5858 5858 5857 5857 5856 5856 5857
5769 5770 5770 5769 5770 5773 5774 5777 5780 5783 5785 5788 5791 5796 5799 5805 5811 5816 5821 5825 5827 5829 5831 5835 5840 5843 5845 5849 5846 5847 5849 5850 5851 5853 5855 5857 5858 5854 5854 5854 5853 5854 5853 5853 5852
5755 5756 5756 5757 5758 5759 5762 5764 5764 5770 5769 5778 5778 5783 5785 5791 5795 5798 5801 5810 5823 5825 5826 5830 5835 5838 5842 5845 5842 5842 5844 5845 5845 5847 5849 5850 5851 5846 5850 5850 5849 5850 5849 5849 5848